Starlink 34163

operational
NORAD ID: 64008 Int'l Des: 2025-101 Owner: SPXS Country: US Constellation: starlink
LEOCIRCULAR

Starlink 34163について

説明を読み込み中...

リアルタイム位置

3D地球を読み込み中...

次回通過

高度履歴

Altitude vs Time

uPlot chart will show altitude changes over time

軌道要素

1 64008U 25101Q 26061.30324919 .00040426 00000-0 14694-2 0 9995
2 64008 43.0033 39.8456 0001584 267.0388 93.0282 15.27606052 45928
Epoch: Mar 2, 2026 • Age: 31 hours

現在のステータス

高度 483.3 km
速度 7.63 km/s
衛星直下点 25.06°N, 88.34°W
打ち上げ日 May 14, 2025
運用期間 0.7 years
タイプ internet

技術仕様

分類 Payload
質量 575.00 kg
乾燥質量 530.00 kg
総質量 575.00 kg
長さ 0.30 m
直径 4.10 m
スパン 29.00 m
形状 Box + pan
製造者 SPXS
バスタイプ Starlink V2MO
フェーズステータス In Orbit
所有者/国 SPXS/US

大規模コンステレーション

Loading constellations...